Location: Unspecified
(40.7945°N, 0.0000°E)
Time: 18:59:54
(UTC+00:00)

Explorer 7 - Pass Details

Date: 25 June 2021
Orbit: 484 x 676 km, 50.3° (Epoch: 30 July)

Event Time Altitude Azimuth Distance (km) Brightness Sun altitude
Rises 01:56:47 0° 297° (WNW) 2,963 10.5 -20.6°
Reaches altitude 10° 01:59:22 10° 287° (WNW) 2,022 9.6 -20.3°
Enters shadow 02:00:34 16° 278° (W) 1,632 9.0 -20.2°
